Stations météo

Publicité
Solenzara, France (7765): Température de l'air & dewpoint: 26.10.2020 00:00:00 - 01.11.2020 00:00:00 (CET)Solenzara, France (7765): Température de l'air 5cm: 26.10.2020 00:00:00 - 01.11.2020 00:00:00 (CET)Solenzara, France (7765): Température de l'air -20cm: 26.10.2020 00:00:00 - 01.11.2020 00:00:00 (CET)Solenzara, France (7765): Vitesse du vent & gusts: 26.10.2020 00:00:00 - 01.11.2020 00:00:00 (CET)Solenzara, France (7765): Direction du vent: 26.10.2020 00:00:00 - 01.11.2020 00:00:00 (CET)Solenzara, France (7765): reduced air pressure: 26.10.2020 00:00:00 - 01.11.2020 00:00:00 (CET)Solenzara, France (7765): visibility: 26.10.2020 00:00:00 - 01.11.2020 00:00:00 (CET)Solenzara, France (7765): Ensoleillement: 26.10.2020 00:00:00 - 01.11.2020 00:00:00 (CET)Solenzara, France (7765): Quantités de précipitations: 26.10.2020 00:00:00 - 01.11.2020 00:00:00 (CET)
Date & Time tt [°C] td [°C] tt 5cm [°C] tt -20cm [°C] ff [km/h] ff [knt] fx [km/h] fx [knt] dd ppp [hPa] vv [km] sd [min] rr [mm]
01.11.2020 00:00:00 - - - - - - - - - - - - -
31.10.2020 23:00:00 17,1 12,8 16,2 17,9 6 3 14 7 W 1024,2 60 0 0,0
31.10.2020 22:00:00 17,3 13,0 16,2 17,9 5 3 8 5 W 1024,2 59 0 0,0
31.10.2020 21:00:00 17,4 13,7 16,3 17,9 2 1 7 4 W 1023,9 58 0 0,0
31.10.2020 20:00:00 17,5 13,4 16,4 17,8 3 2 8 4 WNW 1024,0 47 0 0,0
31.10.2020 19:00:00 17,6 13,5 16,5 17,8 4 2 8 4 WNW 1023,9 55 0 0,0
31.10.2020 18:00:00 17,6 13,7 16,8 17,7 0 0 4 2 N 1023,8 60 0 0,0
31.10.2020 17:00:00 17,8 13,9 17,7 17,7 2 1 5 3 S 1023,8 59 0 0,0
31.10.2020 16:00:00 18,2 13,7 19,0 17,7 3 2 9 5 SE 1023,7 60 0 0,0
31.10.2020 15:00:00 18,7 13,5 20,1 17,5 5 3 12 6 SSE 1023,8 60 0 0,0
31.10.2020 14:00:00 19,0 13,8 20,6 17,4 7 4 15 8 ESE 1024,1 60 0 0,0
31.10.2020 13:00:00 19,2 13,6 20,1 17,3 8 4 16 9 SE 1024,5 60 0 0,0
31.10.2020 12:00:00 19,7 14,7 20,1 17,2 11 6 16 9 E 1024,9 56 0 0,0
31.10.2020 11:00:00 19,5 14,1 19,9 17,2 8 4 11 6 ESE 1025,2 60 0 0,0
31.10.2020 10:00:00 19,5 14,5 16,3 17,3 5 3 9 5 E 1025,4 60 0 0,0
31.10.2020 09:00:00 17,7 13,0 13,4 17,3 2 1 13 7 NNW 1025,2 37 0 0,0
31.10.2020 08:00:00 13,9 11,1 11,8 17,3 9 5 17 9 W 1025,1 60 0 0,0
31.10.2020 07:00:00 12,6 10,5 11,7 17,4 11 6 18 10 W 1024,9 60 0 0,0
31.10.2020 06:00:00 12,7 10,6 11,7 17,4 10 5 16 8 W 1024,8 60 0 0,0
31.10.2020 05:00:00 13,0 11,1 11,4 17,5 9 5 15 8 W 1025,0 60 0 0,0
31.10.2020 04:00:00 12,9 11,0 11,9 17,5 9 5 14 8 W 1024,8 60 0 0,0
31.10.2020 03:00:00 13,2 11,3 12,0 17,6 9 5 15 8 W 1024,8 60 0 0,0
31.10.2020 02:00:00 13,5 11,4 11,5 17,7 8 4 15 8 W 1025,1 60 0 0,0
31.10.2020 01:00:00 13,5 11,7 11,4 17,7 9 5 13 7 W 1025,1 60 0 0,0
31.10.2020 00:00:00 13,7 11,9 12,0 17,7 9 5 15 8 W 1025,2 60 0 0,0
30.10.2020 23:00:00 13,9 12,1 12,3 17,7 9 5 14 8 W 1025,3 60 0 0,0
30.10.2020 22:00:00 14,1 12,3 12,4 17,8 9 5 14 7 W 1025,3 60 0 0,0
30.10.2020 21:00:00 14,6 12,8 12,3 17,8 9 5 14 8 W 1024,9 60 0 0,0
30.10.2020 20:00:00 14,5 13,0 12,8 17,7 8 5 11 6 W 1024,6 53 0 0,0
30.10.2020 19:00:00 15,3 13,8 12,7 17,7 6 3 8 4 W 1024,5 20 0 0,0
30.10.2020 18:00:00 16,4 14,8 13,6 17,6 5 3 7 4 NW 1024,1 43 0 0,0
30.10.2020 17:00:00 17,6 15,2 16,0 17,5 0 0 6 4 N 1023,7 58 0 0,0
30.10.2020 16:00:00 18,2 15,4 18,3 17,4 4 2 14 7 SSE 1023,7 60 0 0,0
30.10.2020 15:00:00 19,5 15,2 20,8 17,3 8 5 18 10 SE 1023,6 20 0 0,0
30.10.2020 14:00:00 19,5 14,7 21,8 17,2 11 6 18 10 SSE 1023,5 60 0 0,0
30.10.2020 13:00:00 19,6 14,4 22,2 17,1 10 5 18 10 SE 1024,0 60 0 0,0
30.10.2020 12:00:00 19,6 14,6 22,4 17,0 11 6 19 10 SE 1024,3 60 0 0,0
30.10.2020 11:00:00 19,8 14,4 20,9 16,9 10 5 16 8 SSE 1024,6 20 0 0,0
30.10.2020 10:00:00 19,0 13,4 17,5 17,0 8 5 12 7 S 1024,4 60 0 0,0
30.10.2020 09:00:00 17,5 10,4 12,4 17,0 3 2 15 8 W 1024,4 60 0 0,0
30.10.2020 08:00:00 13,2 9,1 10,9 17,0 8 5 16 9 WNW 1024,2 10 0 0,0
30.10.2020 07:00:00 12,8 8,5 11,4 17,1 11 6 18 10 W 1023,4 60 0 -
30.10.2020 06:00:00 13,0 8,7 11,5 17,2 10 5 18 10 W 1023,1 60 0 0,0
30.10.2020 05:00:00 13,1 8,6 10,5 17,2 11 6 19 10 W 1023,2 60 0 0,0
30.10.2020 04:00:00 13,0 8,5 11,0 17,2 9 5 16 9 WNW 1022,8 60 0 0,0
30.10.2020 03:00:00 13,4 8,5 10,7 17,3 10 5 17 9 W 1022,4 60 0 0,0
30.10.2020 02:00:00 13,5 8,5 11,8 17,3 10 6 19 10 W 1022,5 60 0 0,0
30.10.2020 01:00:00 14,1 8,5 11,8 17,4 12 6 24 13 W 1022,4 60 0 0,0
30.10.2020 00:00:00 13,8 8,6 10,3 17,4 12 7 18 10 W 1022,6 60 0 0,0
29.10.2020 23:00:00 14,1 8,9 10,2 17,4 6 4 14 8 WNW 1022,9 40 0 0,0
29.10.2020 22:00:00 13,5 9,0 11,0 17,4 5 3 18 10 NNW 1022,3 53 0 0,0
29.10.2020 21:00:00 14,2 9,8 11,3 17,4 5 3 15 8 W 1021,9 60 0 0,0
29.10.2020 20:00:00 14,8 10,6 12,4 17,4 8 4 16 9 WNW 1021,1 60 0 0,0
29.10.2020 19:00:00 15,4 11,6 13,0 17,4 8 4 17 9 W 1020,7 60 0 0,0
29.10.2020 18:00:00 15,8 12,9 13,3 17,3 7 4 10 6 W 1020,4 44 0 0,0
29.10.2020 17:00:00 17,6 14,9 16,3 17,3 3 2 5 3 SSE 1020,2 52 0 0,0
29.10.2020 16:00:00 18,6 14,7 18,7 17,2 2 1 9 5 SE 1020,2 12 0 0,0
29.10.2020 15:00:00 19,2 14,9 19,5 17,1 7 4 23 12 E 1019,9 58 0 0,0
29.10.2020 14:00:00 19,8 14,6 19,6 17,1 19 11 37 20 NE 1019,8 60 0 0,0
29.10.2020 13:00:00 19,7 14,7 19,2 17,1 26 14 34 19 NE 1019,1 60 0 0,0
29.10.2020 12:00:00 19,5 12,5 19,3 17,1 23 12 29 16 NNE 1019,4 60 0 0,0
29.10.2020 11:00:00 18,4 12,4 17,4 17,1 9 5 22 12 NNE 1018,7 60 0 0,0
29.10.2020 10:00:00 16,8 11,3 14,9 17,1 7 4 13 7 N 1018,7 56 0 0,0
29.10.2020 09:00:00 14,7 10,9 12,5 17,2 8 4 9 5 N 1018,5 60 0 0,0
29.10.2020 08:00:00 13,1 11,0 10,0 17,2 4 2 11 6 NW 1018,5 60 0 0,0
29.10.2020 07:00:00 12,2 10,1 9,8 17,4 7 4 15 8 WNW 1018,6 60 0 0,0
29.10.2020 06:00:00 11,7 9,6 9,5 17,4 9 5 14 8 W 1018,6 60 0 0,0
29.10.2020 05:00:00 11,7 8,7 8,6 17,5 9 5 16 9 W 1018,6 54 0 0,0
29.10.2020 04:00:00 11,8 8,3 9,2 17,6 8 4 14 8 WNW 1019,0 60 0 0,0
29.10.2020 03:00:00 12,1 7,4 10,2 17,7 10 6 18 10 W 1018,9 60 0 0,0
29.10.2020 02:00:00 11,8 6,5 9,2 17,7 11 6 17 9 W 1019,4 60 0 0,0
29.10.2020 01:00:00 11,5 5,8 9,5 17,8 6 3 17 9 WNW 1020,0 60 0 0,0
29.10.2020 00:00:00 11,9 4,6 10,9 17,9 11 6 19 11 W 1019,9 60 0 0,0
28.10.2020 23:00:00 12,1 4,1 11,0 17,9 11 6 21 11 W 1020,3 60 0 0,0
28.10.2020 22:00:00 12,3 4,3 11,1 18,0 12 7 23 12 W 1020,5 60 0 0,0
28.10.2020 21:00:00 12,7 4,6 11,5 18,0 13 7 21 11 W 1020,3 60 0 0,0
28.10.2020 20:00:00 13,2 5,1 11,7 18,0 12 7 21 11 W 1019,9 60 0 0,0
28.10.2020 19:00:00 13,9 6,3 11,7 18,0 11 6 19 10 W 1019,4 60 0 0,0
28.10.2020 18:00:00 14,6 7,2 11,5 17,9 10 5 15 8 WNW 1018,9 60 0 0,0
28.10.2020 17:00:00 17,0 11,0 15,3 17,8 5 3 9 5 NE 1018,4 60 0 0,0
28.10.2020 16:00:00 19,3 9,8 18,4 17,7 6 4 14 8 SE 1018,2 54 0 0,0
28.10.2020 15:00:00 20,2 6,9 20,5 17,6 9 5 18 10 SSE 1018,3 60 0 0,0
28.10.2020 14:00:00 19,8 10,5 22,6 17,5 14 7 20 11 SSE 1018,3 60 0 0,0
28.10.2020 13:00:00 19,9 9,2 23,6 17,4 12 6 22 12 SSE 1018,5 60 0 0,0
28.10.2020 12:00:00 19,8 7,8 22,4 17,3 14 8 21 12 SSE 1018,7 60 0 0,0
28.10.2020 11:00:00 19,4 9,6 20,5 17,3 12 6 19 10 SSE 1018,8 60 0 0,0
28.10.2020 10:00:00 18,7 9,7 15,5 17,4 8 4 15 8 S 1018,5 20 0 0,0
28.10.2020 09:00:00 15,9 4,9 12,6 17,4 7 4 18 10 WNW 1018,5 60 0 0,0
28.10.2020 08:00:00 12,9 4,3 10,5 17,5 10 6 21 11 W 1018,0 60 0 0,0
28.10.2020 07:00:00 11,4 5,0 10,5 17,6 12 7 24 13 W 1017,3 60 0 0,0
28.10.2020 06:00:00 11,4 5,5 10,7 17,7 11 6 23 12 W 1016,9 60 0 0,0
28.10.2020 05:00:00 11,8 5,0 10,9 17,7 11 6 23 12 W 1016,4 60 0 0,0
28.10.2020 04:00:00 11,9 4,6 11,0 17,8 10 6 22 12 W 1016,2 60 0 0,0
28.10.2020 03:00:00 12,4 4,1 11,4 17,9 10 6 24 13 W 1016,3 60 0 0,0
28.10.2020 02:00:00 12,7 3,6 11,6 17,9 13 7 24 13 W 1016,2 60 0 0,0
28.10.2020 01:00:00 12,7 3,6 11,6 18,0 13 7 23 12 W 1016,0 60 0 0,0
28.10.2020 00:00:00 12,9 3,5 11,7 18,1 12 7 21 12 W 1015,7 60 0 0,0
27.10.2020 23:00:00 13,0 3,4 11,5 18,1 11 6 21 11 W 1015,6 60 0 0,0
27.10.2020 22:00:00 13,4 3,7 10,7 18,2 11 6 20 11 W 1015,0 60 0 0,0
27.10.2020 21:00:00 13,9 3,6 11,0 18,2 6 4 21 12 WNW 1014,2 60 0 0,0
27.10.2020 20:00:00 15,4 3,5 12,5 18,2 12 6 26 14 W 1013,5 60 0 0,0
27.10.2020 19:00:00 16,0 3,1 11,9 18,2 13 7 26 14 W 1013,0 60 0 0,0
27.10.2020 18:00:00 15,7 2,5 12,5 18,2 8 5 30 16 N 1012,3 60 0 0,0
27.10.2020 17:00:00 17,2 2,4 15,7 18,1 16 8 35 19 W 1011,3 60 0 0,0
27.10.2020 16:00:00 19,1 2,4 18,0 18,0 16 9 37 20 W 1010,9 48 0 0,0
27.10.2020 15:00:00 19,6 2,4 19,6 18,0 15 8 36 19 W 1010,5 60 0 0,0
27.10.2020 14:00:00 19,9 2,7 20,5 17,9 15 8 39 21 W 1010,4 39 0 0,0
27.10.2020 13:00:00 19,4 3,9 20,6 17,8 22 12 52 28 W 1010,5 46 0 0,0
27.10.2020 12:00:00 19,9 3,6 20,4 17,8 18 10 36 19 W 1010,5 53 0 0,0
27.10.2020 11:00:00 19,5 4,0 19,1 17,8 16 9 40 21 W 1010,6 60 0 0,0
27.10.2020 10:00:00 19,1 3,7 17,7 17,8 11 6 31 17 WSW 1010,1 60 0 0,0
27.10.2020 09:00:00 18,6 3,2 14,9 17,8 9 5 28 15 W 1009,5 59 0 0,0
27.10.2020 08:00:00 17,3 3,2 12,3 17,9 7 4 25 14 W 1009,0 58 0 0,0
27.10.2020 07:00:00 16,4 3,1 12,4 18,0 9 5 41 22 W 1008,6 60 0 0,0
27.10.2020 06:00:00 16,9 1,3 11,7 18,0 14 8 43 23 W 1007,9 60 0 0,0
27.10.2020 05:00:00 16,9 2,5 12,9 18,1 10 5 32 18 WNW 1007,1 60 0 0,0
27.10.2020 04:00:00 17,9 1,4 13,8 18,2 25 14 58 32 WSW 1006,6 60 0 0,0
27.10.2020 03:00:00 17,2 3,5 13,6 18,2 22 12 61 33 WSW 1006,5 60 0 0,0
27.10.2020 02:00:00 16,9 4,2 13,0 18,3 19 11 46 25 W 1006,5 60 0 0,0
27.10.2020 01:00:00 16,6 4,6 12,1 18,3 10 5 27 15 ESE 1007,1 60 0 0,0
27.10.2020 00:00:00 16,8 5,7 12,6 18,4 10 5 34 18 WSW 1007,1 60 0 0,0
26.10.2020 23:00:00 16,2 6,6 11,8 18,4 13 7 31 17 SSE 1006,9 60 0 0,0
26.10.2020 22:00:00 17,4 6,6 12,0 18,5 13 7 35 19 WNW 1006,9 60 0 0,0
26.10.2020 21:00:00 17,8 9,2 12,4 18,5 13 7 34 19 WSW 1006,4 60 0 0,0
26.10.2020 20:00:00 17,8 6,3 12,7 18,5 17 9 41 22 WNW 1005,7 50 0 0,0
26.10.2020 19:00:00 17,9 8,5 13,1 18,5 10 5 29 15 WNW 1006,1 60 0 0,0
26.10.2020 18:00:00 16,7 11,4 14,6 18,4 9 5 20 11 WNW 1005,8 60 0 1,0
26.10.2020 17:00:00 19,6 12,4 16,3 18,4 18 10 33 18 SSW 1004,8 60 0 0,2
26.10.2020 16:00:00 20,6 13,8 19,5 18,3 24 13 53 29 S 1005,0 56 0 0,0
26.10.2020 15:00:00 19,7 15,8 19,5 18,3 31 17 58 32 SSE 1005,1 33 0 0,0
26.10.2020 14:00:00 20,2 14,8 20,5 18,2 41 22 59 32 S 1005,9 52 0 0,0
26.10.2020 13:00:00 19,8 15,0 20,4 18,2 38 20 61 33 S 1007,4 54 0 0,0
26.10.2020 12:00:00 19,9 14,0 19,8 18,1 42 23 63 34 S 1008,3 58 0 0,0
26.10.2020 11:00:00 19,4 14,6 19,5 18,2 40 22 60 32 S 1009,0 60 0 0,0
26.10.2020 10:00:00 19,8 15,0 18,2 18,2 38 20 53 29 S 1009,2 60 0 0,0
26.10.2020 09:00:00 19,2 14,2 15,6 18,2 24 13 38 21 S 1009,7 44 0 0,0
26.10.2020 08:00:00 17,2 13,1 11,5 18,3 10 5 17 9 N 1009,8 58 0 0,0
26.10.2020 07:00:00 14,4 11,0 10,6 18,4 2 1 17 9 WNW 1009,9 60 0 0,0
26.10.2020 06:00:00 13,0 10,7 10,4 18,4 6 3 13 7 N 1010,3 60 0 0,0
26.10.2020 05:00:00 13,6 11,1 10,9 18,5 5 3 16 9 WNW 1011,0 60 0 0,0
26.10.2020 04:00:00 14,8 11,9 12,3 18,6 7 4 16 9 NW 1011,5 60 0 0,0
26.10.2020 03:00:00 14,6 12,5 11,4 18,7 4 2 19 11 N 1011,8 60 0 0,0
26.10.2020 02:00:00 13,5 11,9 10,9 18,7 6 4 14 8 WNW 1012,4 60 0 0,0
26.10.2020 01:00:00 13,1 11,3 10,8 18,8 4 2 11 6 NNW 1013,2 60 0 0,0
26.10.2020 00:00:00 13,4 11,6 10,9 18,9 7 4 14 8 NNW 1013,7 60 0 0,0

tt = Température de l'air
td = dewpoint
tt 5cm = Température de l'air 5cm
tt -20cm = Température de l'air -20cm
ff = Vitesse du vent
fx = gusts
dd = Direction du vent
ppp = reduced air pressure
vv = visibility
sd = Ensoleillement
rr = Quantités de précipitations

stations d'obs. à proximité